Regional Weather Roundup
Issued by NWS

Home | Current Version | Previous Version | Graphics & Text | Print | Product List | Glossary On
Versions: 1 2 3 4 5 6 7 8 9 10 11 12 13 14 15 16 17 18 19 20 21 22 23 24 25 26 27 28 29 30 31 32 33 34 35 36 37 38 39 40 41 42 43 44 45 46 47 48 49 50
000
ASUS43 KDMX 270007
RWRIA

WEATHER ROUNDUP FOR IOWA
NATIONAL WEATHER SERVICE DES MOINES IA
700 PM CDT WED AUG 26 2015

NOTE: "FAIR" INDICATES FEW OR NO CLOUDS BELOW 12,000 FEET WITH NO
SIGNIFICANT WEATHER AND/OR OBSTRUCTIONS TO VISIBILITY.

* - THESE STATIONS ARE NOT NWS STATIONS...THUS NOT UNDER NWS
QUALITY CONTROL.  THEY ALSO DO NOT REPORT WEATHER SUCH
AS PRECIPITATION OR FOG.

IAZ001>003-012>014-020>022-031>034-043>046-270100-
   NORTHWEST IOWA

CITY           SKY/WX    TMP DP  RH WIND       PRES   REMARKS
CARROLL *      SUNNY     70  61  73 SE7       30.12F
CHEROKEE *     SUNNY     73  62  69 SE6       30.11F
DENISON *      SUNNY     72  63  73 SE6       30.10S
LE MARS *      SUNNY     73  64  73 SE8       30.09F
ORANGE CITY *  SUNNY     73  63  68 SE6       30.10S
SHELDON *      SUNNY     70  61  73 SE7       30.09F
SIOUX CITY     SUNNY     75  62  64 SE9       30.08F
6HR MIN TEMP:  72; 6HR MAX TEMP:  78;

SPENCER        SUNNY     71  54  54 SE8       30.12S
6HR MIN TEMP:  69; 6HR MAX TEMP:  74;

STORM LAKE *   SUNNY     68  61  77 SE6       30.13F
$$

IAZ055>058-069>071-079>083-090>094-270100-
   SOUTHWEST IOWA

CITY           SKY/WX    TMP DP  RH WIND       PRES   REMARKS
ATLANTIC *     SUNNY     73  61  64 SE6       30.12S
AUDUBON *      MOSUNNY   70  63  78 SE3       30.13F
CLARINDA *     SUNNY     75  64  69 S5        30.13S
COUNCIL BLFS * SUNNY     73  64  73 SE6       30.11S
CRESTON *      SUNNY     70  59  68 SE5       30.15S
HARLAN  *      SUNNY     72  70  94 S3        30.15S
LAMONI         CLEAR     74  55  51 SE3       30.13R
6HR MIN TEMP:  73; 6HR MAX TEMP:  77;

RED OAK *      MOSUNNY   75  63  64 SE5       30.11F
SHENANDOAH *   SUNNY     75  64  69 E5        30.11F
$$

IAZ047>049-059>061-072>074-084-270100-
   CENTRAL IOWA

CITY           SKY/WX    TMP DP  RH WIND       PRES   REMARKS
AMES             N/A     70  60  70 CALM      30.13S
6HR MIN TEMP:  70; 6HR MAX TEMP:  76;

ANKENY *       CLEAR     70  57  64 CALM      30.12F
CHARITON *     CLEAR     70  59  68 CALM      30.13S
DES MOINES     MOCLDY    74  53  48 S6        30.12F
6HR MIN TEMP:  74; 6HR MAX TEMP:  79;

GRINNELL*      CLEAR     72  54  53 CALM      30.14F
KNOXVILLE *    PTCLDY    73  54  49 CALM      30.12S
MARSHALLTOWN   CLEAR     71  57  61 E3        30.12F
6HR MIN TEMP:  71; 6HR MAX TEMP:  75;

PELLA *        CLEAR     72  64  76 CALM      30.14S
PERRY *          N/A     72  61  68 CALM      30.13S
$$

IAZ004>006-015-016-023>025-035-036-270100-
   NORTH CENTRAL IOWA

CITY           SKY/WX    TMP DP  RH WIND       PRES   REMARKS
ALGONA *       MOSUNNY   70  55  60 SE3       30.14S
CLARION *      SUNNY     70  61  73 S3        30.13F
ESTHERVILLE    SUNNY     68  55  63 SE6       30.12F
6HR MIN TEMP:  66; 6HR MAX TEMP:  72;

FORT DODGE *   SUNNY     72  55  56 SW3       30.14S
MASON CITY     CLEAR     70  59  68 S3        30.15S
6HR MIN TEMP:  70; 6HR MAX TEMP:  76;

FOREST CITY *  CLEAR     68  59  73 CALM      30.14S
IOWA FALLS *     N/A     72  61  68 CALM      30.15S
$$

IAZ007>011-017>019-026>030-037>042-050>054-066-270100-
   NORTHEAST IOWA

CITY           SKY/WX    TMP DP  RH WIND       PRES   REMARKS
CEDAR RAPIDS   CLEAR     69  63  81 W3        30.13R
6HR MIN TEMP:  69; 6HR MAX TEMP:  76; 6HR PCP: TRACE;

CHARLES CITY * CLEAR     70  57  64 CALM      30.14F
CLINTON *      CLEAR     72  59  64 E3        30.15S
DECORAH *      CLEAR     70  52  52 CALM      30.13S
DUBUQUE        CLEAR     72  55  55 N5        30.14R
6HR MIN TEMP:  72; 6HR MAX TEMP:  76;

MONTICELLO *   CLEAR     72  59  64 CALM      30.12S
OELWEIN *      CLEAR     70  61  73 CALM      30.14S
WATERLOO       CLEAR     72  56  57 CALM      30.12F
6HR MIN TEMP:  72; 6HR MAX TEMP:  77;

$$

IAZ064-065-067-068-078-270100-
   EAST CENTRAL IOWA

CITY           SKY/WX    TMP DP  RH WIND       PRES   REMARKS
DAVENPORT      PTCLDY    71  59  65 CALM      30.13S
6HR MIN TEMP:  71; 6HR MAX TEMP:  76;

IOWA CITY      CLEAR     73  56  54 SW3       30.14R
6HR MIN TEMP:  73; 6HR MAX TEMP:  78;

MT. PLEASANT * CLEAR     74  54  48 CALM      30.13S
MUSCATINE *    CLEAR     73  57  56 NW3       30.12S
QUAD CITIES    PTCLDY    73  56  54 CALM      30.12S
6HR MIN TEMP:  73; 6HR MAX TEMP:  78;

$$

IAZ062-063-075>077-085>089-095>099-270100-
   SOUTHEAST IOWA

CITY           SKY/WX    TMP DP  RH WIND       PRES   REMARKS
BURLINGTON     CLEAR     74  57  55 CALM      30.12S
6HR MIN TEMP:  74; 6HR MAX TEMP:  78;

FAIRFIELD *    CLEAR     72  55  56 CALM      30.13S
FORT MADISON * CLEAR     72  59  64 CALM      30.13S
KEOKUK *       CLEAR     73  57  56 CALM      30.12S
OSKALOOSA *      N/A     73  56  56 CALM      30.13F
CENTERVILLE *  CLEAR     68  59  73 CALM      30.15R
OTTUMWA        CLEAR     74  54  49 E3        30.11F
6HR MIN TEMP:  73; 6HR MAX TEMP:  77;

WASHINGTON *     N/A    N/A N/A N/A MISG        N/A
$$

ABBREVIATIONS USED IN REMARKS
   TC - TEMPERATURES IN CELSIUS
  WCI - WIND CHILL INDEX
   HX - HEAT INDEX
  VSB - VISIBILITY
$$




USA.gov is the U.S. government's official web portal to all federal, state and local government web resources and services.